Torna al catalogo

STARLINK-37435

AttivoComunicazioniVLEO
NORAD 69265·PAYLOAD·🇺🇸 United States

Lanciato May 29, 2026 da Cape Canaveral Space Force Station

Loading…

Prossimi Passaggi (prossime 24 ore)

TLE

AggiornatoSource: CelesTrak SupGP

Epoca: Sep 15, 2026, 04:16 UTC

1 69265C 26117AD  26258.17826389  .00004030  00000+0  11907-3 0  2587
2 69265  53.1567 178.7016 0001328  78.9485 101.5173 15.34388738    11

Traccia STARLINK-37435 in tempo reale con AllMySat

Download on the App Store